Weather History for Albany, NY

Change the Weather History Date:

Sunday, September 7, 2014

  Actual Average Record
Temperature  
Mean Temperature 67 °F 65 °F  
Max Temperature 77 °F 76 °F 96 °F (1945)
Min Temperature 56 °F 55 °F 36 °F (1962)
Degree Days  
Heating Degree Days 0 2  
Month to date heating degree days 0 13  
Since 1 July heating degree days 8 36  
Cooling Degree Days 2 3  
Month to date cooling degree days 63 23  
Year to date cooling degree days 630 566  
Growing Degree Days 19 (Base 50)    
Moisture  
Dew Point 53 °F    
Average Humidity 66    
Maximum Humidity 93    
Minimum Humidity 38    
Precipitation  
Precipitation 0.00 in 0.10 in 1.76 in (2011)
Month to date precipitation 0.17 0.70  
Year to date precipitation 26.95 26.85  
Sea Level Pressure  
Sea Level Pressure 30.10 in    
Wind  
Wind Speed 6 mph (NW)    
Max Wind Speed 14 mph    
Max Gust Speed 19 mph    
Visibility 10 miles    
Events      
T = Trace of Precipitation, MM = Missing Value Source: NWS Daily Summary

Daily Weather History Graph

Daily Weather History Graph

Search for Another Location

Airport:

Trip Planner

Search our weather history database for the weather conditions in past years. The results will help you decide how hot, cold, wet, or windy it might be!

Date:

Astronomy

Sep. 07, 2014 Rise Set
Actual Time 6:26 AM EDT 7:19 PM EDT
Civil Twilight 5:57 AM EDT 7:47 PM EDT
Nautical Twilight 5:23 AM EDT 8:22 PM EDT
Astronomical Twilight 4:47 AM EDT 8:57 PM EDT
Moon 6:17 PM EDT (9/7) 4:34 AM EDT (9/7)
Length of Visible Light 13h 50m
Length of Day
12h 52m
Waxing Gibbous, 97% of the Moon is Illuminated
Sep 7
Waxing Gibbous
Sep 8
Full
Sep 15
Last Quarter
Sep 24
New
Oct 1
First Quarter

Hourly Weather History & Observations

Time (EDT) Temp. Dew Point Humidity Pressure Visibility Wind Dir Wind Speed Gust Speed Precip Events Conditions
12:51 AM 64.0 °F 60.1 °F 87% 29.97 in 10.0 mi West 3.5 mph - N/A   Overcast
1:51 AM 64.0 °F 60.1 °F 87% 29.96 in 10.0 mi Calm Calm - N/A   Mostly Cloudy
2:51 AM 63.0 °F 60.1 °F 90% 29.97 in 10.0 mi Calm Calm - N/A   Mostly Cloudy
3:51 AM 63.0 °F 59.0 °F 87% 29.98 in 10.0 mi NW 5.8 mph - N/A   Mostly Cloudy
4:51 AM 63.0 °F 59.0 °F 87% 30.00 in 10.0 mi NW 4.6 mph - N/A   Mostly Cloudy
5:51 AM 62.1 °F 57.9 °F 86% 30.03 in 10.0 mi NNW 3.5 mph - N/A   Mostly Cloudy
6:51 AM 62.1 °F 57.9 °F 86% 30.05 in 10.0 mi NNW 4.6 mph - N/A   Mostly Cloudy
7:51 AM 63.0 °F 57.9 °F 84% 30.09 in 10.0 mi North 8.1 mph - N/A   Scattered Clouds
8:51 AM 64.0 °F 57.9 °F 80% 30.10 in 10.0 mi NW 8.1 mph - N/A   Mostly Cloudy
9:29 AM 64.0 °F 57.0 °F 78% 30.12 in 10.0 mi NNW 5.8 mph - N/A   Mostly Cloudy
9:51 AM 66.9 °F 55.0 °F 66% 30.13 in 10.0 mi NNW 5.8 mph - N/A   Mostly Cloudy
10:51 AM 69.1 °F 50.0 °F 51% 30.14 in 10.0 mi NNE 4.6 mph - N/A   Scattered Clouds
11:51 AM 71.1 °F 51.1 °F 49% 30.14 in 10.0 mi Variable 3.5 mph - N/A   Partly Cloudy
12:51 PM 73.0 °F 48.9 °F 42% 30.13 in 10.0 mi Variable 4.6 mph - N/A   Partly Cloudy
1:51 PM 75.0 °F 48.0 °F 38% 30.13 in 10.0 mi WNW 8.1 mph - N/A   Scattered Clouds
2:51 PM 75.0 °F 48.9 °F 40% 30.12 in 10.0 mi WNW 12.7 mph 16.1 mph N/A   Scattered Clouds
3:51 PM 75.9 °F 48.9 °F 38% 30.12 in 10.0 mi West 6.9 mph - N/A   Partly Cloudy
4:51 PM 75.2 °F 50.0 °F 41% 30.12 in 10.0 mi NNW 10.4 mph 19.6 mph N/A   Partly Cloudy
5:51 PM 73.9 °F 51.1 °F 45% 30.13 in 10.0 mi West 8.1 mph - N/A   Partly Cloudy
6:51 PM 71.1 °F 51.1 °F 49% 30.14 in 10.0 mi West 9.2 mph - N/A   Clear
7:51 PM 66.0 °F 52.0 °F 60% 30.15 in 10.0 mi WNW 6.9 mph - N/A   Clear
8:51 PM 64.9 °F 52.0 °F 63% 30.18 in 10.0 mi NW 6.9 mph - N/A   Clear
9:51 PM 64.4 °F 48.2 °F 56% 30.20 in 10.0 mi NW 6.9 mph - N/A   Clear
10:51 PM 62.6 °F 48.2 °F 59% 30.21 in 10.0 mi NNW 8.1 mph - N/A   Clear
11:51 PM 61.0 °F 48.9 °F 64% 30.23 in 10.0 mi SE 3.5 mph - N/A   Clear